Location: Martin
(32.0982°N, 93.2193°W)
Time: 13:40:32
(UTC+00:00)

Tiangong - Visible Passes

Search period start: 20 September 2024 00:00
Search period end: 30 September 2024 00:00
Orbit: 373 x 377 km, 41.5° (Epoch: 18 September)

Date Brightness Start Highest point End Pass type
(mag) Time Alt. Az. Time Alt. Az. Time Alt. Az.
20 Sep -0.5 01:11:47 10° W 01:14:34 30° NNW 01:16:54 13° NE visible
21 Sep 0.2 01:46:35 10° NW 01:48:42 17° N 01:49:08 16° N visible
22 Sep -0.1 00:43:04 10° WNW 00:45:34 22° NNW 00:48:06 10° NE visible
22 Sep 1.2 02:21:05 10° NW 02:21:13 11° NNW 02:21:13 11° NNW visible
23 Sep 0.4 01:17:45 10° NW 01:19:38 15° N 01:21:11 11° NNE visible
24 Sep 0.5 01:51:46 10° NNW 01:53:02 14° N 01:53:02 14° N visible
25 Sep 0.3 00:48:30 10° NW 00:50:18 14° N 00:52:06 10° NE visible
26 Sep -0.1 01:22:01 10° NW 01:24:12 17° N 01:24:33 17° NNE visible
27 Sep 0.3 01:55:01 10° NW 01:56:13 19° NNW 01:56:13 19° NNW visible
28 Sep -0.4 00:51:54 10° NW 00:54:22 21° NNE 00:55:53 15° NE visible
29 Sep -1.6 01:24:46 10° NW 01:27:31 46° N 01:27:31 46° N visible
